This demonstration page uses our WeatherBlox Daily Observations layout. Learn more.

Left ArrowRight Arrow

41.86663, -103.66717

Hourly Observations for August 4, 2018

Temp ( °F °C ) Dew Point ( °F °C ) Humidity (%) Winds ( mph kmh ) Pressure ( in mb ) Visibility ( mi km ) Precip ( " mm )
12:53 am 00:53 Clear 60 15.6 58 14.4 93 93 NNE 7 11 29.78 1009 10 16 0.00 0.00
1:35 am 01:35 Clear with Nearby Thunderstorms 61 16.1 59 15 93 93 Calm 29.80 1009 10 16 0.00 0.00
1:53 am 01:53 Clear with Nearby Thunderstorms 62 16.7 58 14.4 86 86 NW 3 6 29.76 1008 8 13 0.00 0.03
2:20 am 02:20 Mostly Clear 62 16.7 59 15 90 90 W 9 15 29.77 1008 10 16 0.02 0.51
2:53 am 02:53 Clear 60 15.6 58 14.4 93 93 VRB 6 9 29.76 1008 10 16 0.02 0.51
3:53 am 03:53 Clear 59 15 56 13.3 90 90 WNW 9 15 29.79 1009 10 16 0.00 0.00
4:53 am 04:53 Clear 57 13.9 56 13.3 96 96 W 10 17 29.81 1009 9 14 0.00 0.00
5:53 am 05:53 Sunny 57 13.9 56 13.3 96 96 WNW 6 9 29.82 1010 10 16 0.00 0.00
6:53 am 06:53 Sunny 57 13.9 56 13.3 96 96 NW 9 15 29.83 1010 10 16 0.00 0.00
7:53 am 07:53 Sunny 61 16.1 57 13.9 87 87 NW 7 11 29.85 1011 10 16 0.00 0.00
8:53 am 08:53 Sunny 66 18.9 58 14.4 75 75 WNW 8 13 29.85 1011 10 16 0.00 0.00
9:53 am 09:53 Sunny 71 21.7 60 15.6 68 68 WNW 5 7 29.84 1011 10 16 0.00 0.00
10:53 am 10:53 Sunny 77 25 61 16.1 58 58 Calm 29.83 1010 10 16 0.00 0.00
11:53 am 11:53 Sunny 81 27.2 62 16.7 53 53 VRB 5 7 29.82 1010 10 16 0.00 0.00
12:53 pm 12:53 Sunny 85 29.4 60 15.6 43 43 Calm 29.80 1009 10 16 0.00 0.00
1:53 pm 13:53 Sunny 88 31.1 59 15 38 38 NW 6 9 29.78 1008 10 16 0.00 0.00
2:53 pm 14:53 Sunny 93 33.9 54 12.2 27 27 Calm 29.76 1008 10 16 0.00 0.00
3:53 pm 15:53 Sunny 91 32.8 57 13.9 32 32 ESE 6 9 29.75 1007 10 16 0.00 0.00
4:53 pm 16:53 Sunny 91 32.8 55 12.8 30 30 ESE 5 7 29.75 1008 9 14 0.00 0.00
5:53 pm 17:53 Sunny 87 30.6 55 12.8 34 34 SE 5 7 29.76 1008 9 14 0.00 0.00
6:53 pm 18:53 Sunny 85 29.4 62 16.7 46 46 ESE 8 13 29.77 1008 9 14 0.00 0.03
7:53 pm 19:53 Sunny 77 25 64 17.8 64 64 ESE 7 11 29.83 1010 10 16 0.00 0.00
8:53 pm 20:53 Clear 75 23.9 56 13.3 52 52 SE 13 20 29.83 1010 10 16 0.00 0.00
9:53 pm 21:53 Clear 68 20 59 15 73 73 NE 5 7 29.86 1011 10 16 0.00 0.00
10:53 pm 22:53 Clear 68 20 59 15 73 73 ENE 7 11 29.83 1010 10 16 0.00 0.00
11:53 pm 23:53 Clear 68 20 58 14.4 70 70 E 9 15 29.81 1010 10 16 0.00 0.00

Powered by AerisWeather